Temperature
8 8 7 7 8 8 8 8 9 9 9 9 10 10 10 11 11 11 11 11 12 12 12 12 12 12 12 12 13 13 13 13 13 12 12 13 13 12 13 13 13 13 13
7 7 7 7 7 7 7 8 8 8 8 9 9 9 9 10 10 10 10 11 11 11 11 12 12 12 12 12 12 12 12 12 12 12 12 12 12 12 12 12 13 13 13
7 6 6 6 6 6 6 7 7 7 8 8 8 8 9 9 9 10 10 10 10 11 11 11 11 11 11 11 12 12 12 12 12 12 11 11 11 12 12 12 12 12 12
6 6 6 6 6 6 6 6 6 7 7 7 8 8 8 8 8 9 9 9 10 10 10 10 10 11 11 11 11 11 11 11 11 11 11 11 12 11 12 12 12 12 12
6 5 5 5 5 5 5 6 6 6 6 7 7 7 7 7 8 8 8 8 9 9 9 10 10 10 10 10 10 10 10 11 11 11 11 11 11 11 11 11 11 11 12
6 5 5 5 5 5 5 5 5 5 6 6 6 6 7 7 7 7 7 8 8 8 9 9 9 9 9 9 10 10 10 10 10 10 10 10 10 10 10 10 11 11 11
5 5 5 5 5 5 5 5 5 5 5 5 5 6 6 6 6 6 6 7 7 8 8 8 8 8 8 9 9 9 9 9 9 10 10 10 10 10 10 10 10 10 10
5 5 5 5 4 4 4 4 4 5 5 5 5 5 5 5 6 6 6 6 6 7 7 7 7 8 8 8 8 8 8 8 9 9 9 9 9 9 9 9 9 9 9
5 5 5 4 4 4 4 4 4 4 4 4 4 4 4 5 5 5 5 5 6 6 6 6 6 7 7 7 7 7 7 7 8 8 8 8 8 8 8 8 8 8 8
5 5 4 4 4 4 4 4 4 4 4 4 4 4 4 4 4 4 4 4 5 5 5 5 5 6 6 6 6 6 6 6 6 7 7 7 7 8 8 8 8 8 8
6 5 4 4 4 4 4 4 3 3 3 3 3 3 3 3 3 3 4 4 4 4 4 4 5 5 5 5 5 5 5 5 6 6 6 6 6 7 7 7 7 7 7
6 5 4 4 4 4 3 3 3 3 3 3 3 3 3 3 3 3 3 3 3 3 3 3 3 4 4 4 4 4 4 5 5 5 5 5 5 5 6 6 6 6 6
6 5 4 4 4 3 3 3 3 2 2 2 2 2 2 2 2 2 2 2 2 2 2 3 3 3 3 3 3 3 3 3 4 4 4 4 4 4 5 5 5 5 5
6 5 4 4 4 3 3 3 2 2 2 2 2 2 2 2 2 2 2 2 2 2 2 2 2 2 2 2 2 2 2 3 3 3 3 3 3 3 4 4 4 4 4
6 5 4 4 3 3 3 2 2 2 2 2 2 1 1 1 1 1 1 1 1 1 1 1 1 1 1 1 1 1 1 2 2 2 2 2 2 2 3 3 3 3 3
6 5 4 4 3 3 2 2 2 2 1 1 1 1 1 1 1 1 1 1 1 1 1 0 1 1 0 0 0 -0 0 0 1 1 1 1 2 2 2 2 2 2 2
6 5 4 4 3 3 2 2 2 2 1 1 1 0 0 0 0 0 0 0 0 0 -0 -0 -0 -0 -0 -0 -1 -1 -1 -1 -0 -0 0 0 1 0 1 1 1 1 1
5 5 4 4 3 3 2 2 2 1 1 1 0 0 0 0 -0 -0 -0 -0 -0 -1 -1 -1 -1 -1 -1 -1 -1 -1 -1 -1 -1 -1 -1 -1 -0 -0 -0 -0 0 1 1
5 5 4 4 3 2 2 2 1 1 1 0 0 -0 -0 -0 -1 -1 -1 -1 -1 -1 -1 -1 -2 -2 -1 -2 -2 -2 -2 -2 -2 -2 -2 -2 -2 -1 -1 -1 -1 -0 0
5 4 4 3 3 2 2 1 1 1 0 0 -0 -1 -1 -1 -1 -1 -1 -2 -2 -2 -2 -2 -2 -2 -2 -3 -3 -3 -3 -3 -3 -3 -2 -2 -2 -2 -2 -2 -2 -1 -1
5 4 3 3 2 2 2 1 1 1 0 -0 -0 -1 -1 -1 -1 -2 -2 -2 -2 -2 -2 -2 -3 -3 -3 -4 -4 -4 -4 -4 -4 -4 -3 -3 -3 -3 -3 -3 -3 -2 -2
4 4 3 3 2 2 1 1 1 0 -0 -1 -1 -1 -1 -2 -2 -2 -2 -2 -3 -3 -3 -3 -3 -3 -4 -4 -4 -5 -5 -5 -5 -5 -4 -4 -4 -4 -3 -3 -3 -3 -3
4 3 3 2 2 2 1 1 0 -0 -1 -1 -1 -1 -2 -2 -2 -2 -3 -3 -3 -4 -4 -4 -4 -4 -4 -4 -5 -5 -5 -5 -5 -5 -5 -5 -5 -4 -4 -4 -4 -4 -3
3 3 2 2 2 1 1 0 -0 -1 -1 -1 -1 -2 -2 -2 -2 -3 -3 -4 -4 -4 -5 -5 -5 -5 -5 -5 -6 -6 -6 -5 -6 -5 -5 -5 -5 -5 -5 -5 -5 -4 -4
3 2 2 2 1 1 0 -0 -1 -1 -1 -2 -2 -2 -2 -3 -3 -3 -4 -4 -5 -5 -6 -6 -6 -6 -6 -6 -6 -6 -6 -6 -6 -6 -6 -6 -5 -5 -5 -5 -5 -5 -5
2 2 2 1 1 0 0 -0 -1 -1 -2 -2 -2 -3 -3 -3 -4 -4 -4 -4 -5 -5 -6 -6 -6 -7 -7 -7 -6 -6 -6 -6 -6 -6 -6 -7 -7 -7 -7 -6 -6 -6 -6
Wind_Speed
6 7 8 8 8 8 8 8 8 8 7 5 5 4 3 3 3 3 4 4 3 4 2 2 3 3 4 5 6 5 6 6 4 3 4 5 6 7 7 7 6 8 11
7 8 8 8 8 9 9 9 9 9 8 6 5 4 4 3 3 3 3 3 3 3 3 2 3 3 4 5 5 5 5 4 5 4 3 3 4 6 8 7 8 8 7
7 8 8 8 8 8 9 9 9 9 8 8 6 5 4 3 3 4 4 4 4 3 2 2 2 3 3 4 5 6 7 6 6 5 4 4 5 3 5 8 8 8 7
6 7 8 8 8 7 7 8 9 9 8 7 6 5 4 3 3 3 3 4 4 4 4 3 2 2 2 3 5 5 5 6 6 5 6 5 3 3 3 4 6 8 8
5 6 7 7 7 8 7 8 8 9 9 8 8 6 4 3 3 3 4 4 3 3 4 3 3 2 2 3 4 4 5 5 6 5 5 6 4 4 4 4 4 5 7
4 5 5 6 7 7 7 7 8 9 9 9 8 7 6 5 5 5 4 4 3 3 4 3 2 2 2 3 3 4 4 4 5 5 5 4 4 5 5 5 5 6 6
3 4 5 6 7 8 8 8 8 9 9 9 8 8 6 5 5 5 4 4 3 3 4 4 3 3 3 3 3 3 3 4 5 5 5 5 6 4 4 5 5 5 4
2 3 4 5 5 6 7 7 8 8 9 8 7 7 7 5 4 5 4 4 3 4 4 4 4 3 3 4 3 3 4 4 4 5 5 5 5 5 5 5 4 5 6
1 2 2 3 4 5 5 6 7 7 8 9 8 7 7 6 6 6 5 4 5 5 5 5 5 5 5 4 4 4 4 4 4 5 5 5 5 5 6 6 6 7 8
0 1 1 2 3 3 4 5 6 6 7 8 8 7 7 7 6 5 6 6 6 6 6 6 6 6 5 5 4 4 4 4 5 4 5 5 4 5 5 5 6 7 8
2 0 0 1 1 2 3 5 6 6 6 7 6 7 7 7 7 6 7 6 6 7 7 7 6 6 6 6 5 5 5 5 5 5 5 6 5 5 4 5 5 6 6
2 1 0 1 2 2 3 4 4 5 5 6 6 6 6 7 7 7 7 7 7 6 6 6 6 6 6 6 6 6 6 6 6 6 6 6 6 6 5 5 6 7 7
3 2 1 0 1 2 2 3 4 4 5 5 5 6 6 7 7 7 7 7 6 6 6 6 6 7 7 7 7 7 7 7 6 6 7 7 6 6 6 6 6 6 7
3 2 2 1 0 1 2 3 4 4 5 5 5 6 6 6 6 6 7 6 6 6 6 6 6 6 6 6 7 7 7 7 7 7 7 6 6 7 7 6 7 7 8
3 3 2 1 1 0 1 2 3 4 4 5 5 5 5 6 6 6 6 6 6 7 6 6 6 7 6 7 8 7 8 8 8 8 7 7 8 9 8 8 7 7 7
2 2 2 2 1 1 0 1 2 3 3 4 5 5 5 6 6 6 6 6 6 6 6 6 6 7 7 12 14 11 8 8 8 9 8 8 8 10 12 12 12 10 10
3 2 2 3 2 1 1 0 1 2 3 3 4 5 5 6 6 7 6 6 6 6 6 6 6 6 8 14 15 15 9 8 8 8 9 9 9 11 8 11 13 12 14
2 2 2 2 2 2 1 0 1 1 2 3 4 4 5 5 6 6 6 6 5 6 6 6 7 7 9 15 15 15 9 7 7 8 8 9 9 10 11 9 9 9 10
2 2 2 2 2 2 1 0 1 1 2 3 4 4 5 5 6 6 6 5 5 5 5 6 6 7 9 14 15 15 7 7 8 8 8 9 9 15 17 11 10 11 10
2 2 2 2 2 2 1 1 1 2 2 3 3 4 4 5 5 6 6 5 5 5 6 6 6 6 7 12 15 14 6 8 8 8 8 12 14 17 18 12 11 12 11
2 2 2 2 2 2 1 1 2 2 2 2 3 4 4 5 5 5 5 5 6 6 6 7 7 6 8 11 14 15 8 8 9 9 8 9 18 20 20 17 11 14 14
2 2 2 2 2 2 2 2 3 2 1 2 3 4 5 5 5 5 5 5 6 6 6 7 7 6 7 10 13 16 15 14 10 9 9 10 19 20 20 16 15 18 15
4 3 3 2 2 2 2 2 2 1 2 3 3 4 5 4 4 5 5 5 5 5 6 6 7 7 7 9 15 17 18 18 12 10 16 18 20 18 14 15 18 14 8
4 3 3 3 3 2 2 2 1 1 2 3 4 4 4 5 5 4 4 4 5 5 6 7 7 8 8 7 8 9 11 14 12 11 14 18 17 14 14 13 10 7 7
4 4 4 4 3 2 2 2 1 0 2 3 4 4 4 4 5 5 4 5 4 6 7 6 7 8 9 11 17 14 10 10 11 12 8 7 7 7 7 7 7 6 7
4 4 4 4 3 3 2 2 1 1 1 3 3 3 3 4 4 5 6 8 9 12 13 12 12 10 14 19 20 20 20 20 19 13 8 8 8 8 8 9 8 7 7
Wind_Direction
8 9 2 359 357 353 348 342 340 335 333 326 315 302 293 286 285 284 302 303 304 293 270 249 233 219 220 221 214 211 213 218 206 204 226 240 226 218 215 212 207 207 204
360 0 359 3 2 357 353 350 346 342 340 331 318 296 289 293 296 305 312 325 331 323 298 258 245 234 226 228 226 217 215 216 195 188 191 227 238 235 224 215 213 213 205
358 359 0 1 360 358 353 349 345 343 341 336 331 326 314 312 317 321 320 326 333 327 317 296 266 254 233 228 226 221 217 219 210 196 185 198 216 219 224 221 218 213 210
2 0 -0 358 357 355 353 350 350 349 347 345 345 342 331 314 310 320 323 325 337 340 351 345 322 295 263 247 243 236 231 219 217 214 213 215 189 202 228 227 220 217 218
8 5 3 356 358 359 359 353 353 358 355 354 352 345 335 324 322 329 327 321 325 339 352 348 336 325 302 285 263 248 243 233 226 218 214 226 229 217 224 234 223 227 227
16 9 2 359 1 2 1 358 360 0 357 356 355 353 347 336 336 336 326 320 326 329 337 339 330 321 310 304 292 264 251 249 243 233 220 212 212 215 220 232 228 230 233
19 3 358 358 359 360 360 359 2 1 1 2 0 357 352 347 341 335 327 330 330 330 328 328 327 321 307 301 297 288 281 265 260 246 240 236 232 223 222 230 237 240 241
26 3 360 359 356 358 359 358 359 0 2 3 1 360 360 355 352 349 343 343 340 333 334 334 324 314 311 304 288 280 276 272 267 264 259 249 245 238 232 229 231 246 242
30 3 9 7 359 357 357 356 358 1 4 6 6 3 1 1 360 357 358 356 351 344 348 344 339 333 323 309 296 281 282 280 268 266 263 262 254 245 239 236 229 232 244
136 22 7 5 6 358 355 359 1 3 2 5 8 6 2 2 1 1 3 358 354 351 349 353 351 346 339 329 316 305 295 290 282 275 273 269 267 261 252 249 246 239 241
184 186 343 11 18 10 9 7 3 4 2 0 1 1 0 359 1 4 3 360 357 355 354 352 352 351 347 346 340 324 317 300 295 291 282 275 275 271 268 262 254 251 249
171 170 159 23 22 15 9 8 360 359 356 354 355 356 356 360 2 1 359 357 355 354 354 352 352 349 349 349 343 335 332 323 311 302 295 288 286 275 270 266 261 256 251
176 175 179 28 16 13 5 4 1 359 353 353 355 357 359 1 358 355 354 354 351 351 352 353 352 349 349 348 344 338 332 325 318 312 302 294 289 284 280 275 270 270 268
188 192 199 202 134 26 7 5 1 359 356 357 358 358 357 354 349 348 350 350 349 349 349 349 349 347 344 348 344 338 333 325 320 314 305 300 295 286 285 281 273 276 274
208 199 200 203 176 88 2 6 356 353 353 354 356 354 348 346 348 347 347 349 350 350 348 349 351 348 346 348 345 340 335 330 323 319 317 309 304 301 296 286 279 277 275
225 204 192 191 185 180 332 0 347 347 350 349 347 347 349 350 349 343 342 344 346 344 344 345 345 346 343 341 345 344 334 328 324 321 320 317 312 309 305 301 294 284 274
218 203 192 186 182 167 132 330 336 346 346 340 341 346 348 349 347 343 344 343 340 340 339 338 338 335 333 338 340 341 337 329 326 324 322 319 320 320 311 303 299 291 285
203 198 184 170 153 134 134 181 330 332 331 336 342 346 347 343 341 341 338 334 332 332 329 327 327 326 331 337 337 336 334 322 318 317 316 315 316 319 319 312 305 293 288
179 173 161 152 146 152 163 185 296 312 327 334 339 340 341 336 333 331 325 322 324 323 321 320 323 323 324 334 337 336 329 323 318 314 315 316 314 316 319 314 305 300 296
110 115 124 133 156 164 142 199 279 305 314 326 329 327 324 320 318 315 315 316 317 314 315 316 315 314 315 328 335 336 327 321 317 314 313 315 316 315 316 311 301 296 295
125 127 144 161 172 150 143 230 266 282 298 318 313 311 310 307 305 308 311 314 314 315 317 315 316 315 320 330 333 334 331 320 315 313 312 311 314 313 312 309 298 294 297
170 164 167 181 167 152 176 239 256 269 300 309 306 307 309 312 320 316 314 317 319 321 319 320 320 320 323 328 328 330 328 325 315 308 305 305 309 311 310 308 303 303 302
188 180 184 192 191 180 186 239 268 302 319 308 305 307 312 315 317 316 317 321 321 318 316 319 319 320 324 325 327 326 325 323 318 307 308 310 311 312 309 306 309 310 301
192 186 189 200 208 195 195 225 262 314 308 301 304 309 313 315 317 316 313 313 314 315 318 320 319 317 317 317 320 320 318 320 317 311 309 312 313 312 312 312 313 310 300
187 187 201 211 212 196 201 199 182 146 299 300 304 310 312 310 311 310 306 307 293 303 312 309 309 312 312 313 320 322 319 319 313 316 311 310 312 313 313 312 310 313 313
187 194 205 211 211 195 193 181 161 177 269 290 300 307 312 311 311 313 313 312 313 316 316 313 311 308 310 317 321 323 323 322 322 321 315 315 315 315 316 315 314 312 311
Height
1500 1498 1495 1493 1490 1487 1485 1483 1481 1480 1479 1478 1477 1476 1476 1476 1477 1477 1478 1479 1480 1481 1482 1482 1484 1485 1486 1488 1489 1492 1493 1495 1498 1499 1500 1502 1503 1504 1506 1507 1509 1510 1511
1499 1497 1494 1491 1488 1485 1483 1481 1479 1477 1476 1475 1474 1473 1473 1472 1473 1473 1474 1475 1476 1476 1477 1478 1479 1480 1481 1482 1484 1485 1487 1489 1492 1493 1495 1496 1497 1497 1499 1501 1502 1504 1505
1498 1496 1493 1490 1487 1484 1481 1479 1477 1475 1473 1472 1471 1470 1470 1469 1469 1469 1470 1471 1472 1472 1473 1474 1475 1475 1476 1477 1478 1480 1481 1483 1485 1487 1489 1490 1489 1491 1492 1493 1495 1497 1498
1497 1495 1492 1489 1486 1483 1481 1478 1475 1473 1471 1470 1469 1467 1466 1465 1465 1466 1466 1467 1468 1468 1469 1469 1470 1471 1471 1472 1473 1474 1475 1477 1478 1480 1482 1484 1484 1486 1485 1486 1488 1490 1491
1496 1494 1492 1489 1486 1483 1480 1477 1474 1472 1470 1468 1467 1465 1464 1463 1463 1463 1463 1463 1464 1465 1465 1465 1466 1466 1467 1467 1468 1469 1470 1471 1472 1473 1474 1476 1478 1479 1480 1480 1481 1483 1484
1495 1493 1491 1488 1485 1482 1479 1476 1473 1471 1469 1467 1465 1464 1462 1461 1461 1460 1460 1460 1461 1461 1461 1461 1462 1462 1462 1463 1463 1464 1465 1465 1466 1467 1468 1469 1470 1471 1473 1474 1474 1475 1476
1493 1492 1489 1487 1484 1481 1478 1476 1473 1470 1468 1466 1464 1463 1461 1460 1459 1458 1457 1457 1457 1457 1457 1458 1458 1458 1458 1458 1459 1459 1459 1460 1461 1461 1462 1463 1464 1465 1467 1468 1468 1468 1469
1492 1490 1488 1486 1483 1481 1478 1475 1472 1470 1468 1465 1463 1462 1460 1459 1457 1457 1456 1455 1454 1454 1454 1454 1454 1454 1454 1454 1453 1454 1454 1454 1454 1455 1456 1456 1457 1459 1460 1461 1462 1461 1461
1490 1489 1487 1485 1483 1480 1478 1475 1472 1470 1467 1465 1463 1461 1459 1458 1456 1455 1454 1453 1452 1452 1451 1451 1450 1450 1449 1449 1449 1448 1448 1449 1449 1449 1450 1450 1451 1452 1453 1454 1455 1456 1454
1489 1487 1486 1484 1482 1479 1477 1475 1472 1470 1467 1465 1463 1461 1459 1457 1455 1454 1452 1451 1450 1449 1448 1448 1447 1446 1445 1445 1444 1444 1444 1444 1444 1443 1443 1444 1444 1445 1445 1446 1447 1447 1447
1486 1486 1484 1483 1481 1479 1477 1475 1472 1470 1467 1465 1463 1460 1458 1456 1454 1453 1451 1449 1448 1447 1445 1444 1443 1442 1442 1441 1440 1439 1439 1438 1438 1438 1438 1438 1438 1437 1438 1438 1439 1440 1440
1484 1484 1483 1481 1480 1478 1476 1474 1472 1469 1467 1465 1462 1460 1458 1456 1453 1451 1450 1448 1446 1445 1443 1442 1441 1439 1438 1437 1436 1435 1434 1433 1432 1432 1432 1431 1431 1431 1431 1431 1431 1432 1432
1482 1481 1481 1480 1479 1477 1475 1473 1471 1469 1466 1464 1461 1459 1457 1454 1452 1450 1448 1446 1445 1443 1441 1440 1438 1436 1435 1433 1432 1430 1429 1428 1427 1426 1426 1425 1425 1424 1424 1424 1424 1424 1424
1480 1479 1479 1478 1477 1475 1474 1472 1470 1467 1465 1462 1460 1457 1455 1453 1451 1449 1447 1445 1443 1441 1439 1438 1436 1434 1432 1430 1429 1427 1425 1423 1422 1422 1421 1419 1419 1418 1418 1417 1417 1417 1417
1477 1477 1476 1476 1475 1473 1472 1470 1468 1466 1463 1461 1458 1456 1454 1452 1449 1447 1445 1443 1441 1439 1437 1435 1433 1431 1429 1427 1425 1423 1421 1419 1417 1416 1415 1414 1413 1412 1412 1411 1410 1410 1409
1475 1474 1474 1473 1472 1471 1469 1468 1466 1464 1462 1459 1457 1455 1452 1450 1448 1446 1443 1441 1439 1437 1435 1433 1431 1429 1426 1425 1422 1420 1418 1415 1413 1411 1409 1408 1407 1406 1405 1405 1404 1403 1403
1471 1471 1471 1470 1469 1468 1467 1465 1464 1462 1460 1458 1456 1453 1451 1448 1446 1444 1442 1440 1437 1435 1433 1431 1428 1426 1424 1421 1419 1417 1414 1411 1409 1407 1405 1403 1402 1400 1398 1397 1396 1395 1395
1468 1468 1467 1467 1466 1465 1464 1463 1461 1460 1458 1456 1454 1451 1449 1447 1444 1442 1440 1438 1435 1433 1431 1428 1425 1423 1420 1418 1416 1413 1411 1408 1405 1403 1401 1399 1396 1395 1393 1391 1389 1388 1387
1465 1465 1464 1464 1463 1462 1461 1460 1459 1457 1456 1454 1452 1449 1447 1445 1442 1440 1438 1435 1433 1430 1428 1425 1423 1420 1417 1415 1413 1410 1407 1404 1401 1399 1397 1394 1392 1390 1388 1386 1383 1380 1379
1462 1462 1461 1461 1460 1459 1458 1457 1456 1454 1453 1451 1449 1447 1445 1443 1440 1438 1436 1433 1431 1428 1425 1422 1420 1417 1415 1412 1410 1407 1403 1400 1397 1394 1392 1389 1387 1385 1383 1380 1377 1373 1371
1459 1458 1458 1457 1457 1456 1455 1454 1453 1451 1450 1449 1447 1445 1443 1440 1438 1436 1433 1431 1428 1425 1422 1420 1417 1414 1411 1409 1406 1404 1401 1397 1393 1390 1386 1384 1381 1379 1376 1374 1371 1367 1365
1455 1455 1454 1454 1453 1453 1452 1451 1449 1448 1447 1445 1444 1442 1440 1438 1435 1433 1430 1428 1425 1422 1419 1416 1413 1411 1408 1405 1402 1400 1397 1394 1390 1385 1382 1379 1376 1373 1370 1367 1363 1361 1359
1452 1451 1451 1450 1450 1449 1448 1447 1446 1445 1444 1442 1440 1439 1437 1435 1432 1430 1427 1425 1422 1419 1416 1413 1409 1406 1404 1401 1398 1395 1392 1388 1385 1381 1377 1374 1370 1366 1363 1360 1357 1354 1352
1448 1448 1447 1446 1446 1446 1445 1444 1443 1442 1441 1439 1437 1435 1434 1432 1430 1427 1425 1422 1419 1416 1413 1410 1406 1403 1400 1397 1394 1390 1387 1383 1379 1375 1371 1368 1364 1361 1358 1354 1351 1348 1346
1444 1444 1443 1443 1442 1442 1441 1440 1439 1438 1437 1436 1434 1432 1431 1428 1426 1424 1422 1419 1416 1414 1411 1407 1404 1400 1396 1394 1391 1388 1383 1379 1375 1371 1366 1362 1359 1355 1352 1349 1346 1343 1341
1440 1439 1439 1439 1438 1438 1437 1437 1436 1435 1434 1432 1431 1429 1427 1425 1423 1420 1418 1416 1414 1411 1408 1405 1402 1398 1395 1391 1387 1383 1379 1375 1371 1367 1362 1358 1355 1351 1348 1345 1342 1339 1336